This is the latest recevied weather packets stored in our database for station/object KB4RFE. If no packets are shown the sender has not sent any weather packets the latest 10 day(s).
| Time | Temp. | Humidity | Pressure | Rain* | Wind** | Luminosity | Snow |
|---|---|---|---|---|---|---|---|
| 1787993923 | 24.44° C | 99% | 1021.8 hPa | 4.32 mm | - | 0 W/m² | - |
| 1787993617 | 24.44° C | 99% | 1021.9 hPa | 3.56 mm | - | 0 W/m² | - |
| 1787993312 | 24.44° C | 99% | 1022 hPa | 2.29 mm | - | 0 W/m² | - |
| 1787993012 | 24.44° C | 99% | 1021.9 hPa | 2.29 mm | - | 0 W/m² | - |
| 1787992708 | 24.44° C | 99% | 1022 hPa | 1.78 mm | - | 0 W/m² | - |
| 1787992402 | 24.44° C | 99% | 1021.6 hPa | 1.27 mm | - | 0 W/m² | - |
| 1787992101 | 24.44° C | 99% | 1021.6 hPa | 0 mm | - | 0 W/m² | - |
| 1787991800 | 24.44° C | 99% | 1021.4 hPa | 0.51 mm | - | 0 W/m² | - |
| 1787991503 | 24.44° C | 99% | 1021.5 hPa | 3.56 mm | - | 0 W/m² | - |
| 1787991193 | 24.44° C | 99% | 1021.2 hPa | 4.83 mm | - | 0 W/m² | - |
| 1787990887 | 24.44° C | 99% | 1021.3 hPa | 2.29 mm | - | 0 W/m² | - |
| 1787990582 | 24.44° C | 99% | 1021.4 hPa | 1.27 mm | - | 0 W/m² | - |
| 1787990280 | 24.44° C | 99% | 1021.3 hPa | 0.51 mm | - | 0 W/m² | - |
| 1787989976 | 24.44° C | 99% | 1021.2 hPa | 0 mm | - | 0 W/m² | - |
| 1787989674 | 24.44° C | 99% | 1021.2 hPa | 0 mm | - | 0 W/m² | - |
| 1787989369 | 24.44° C | 99% | 1021.1 hPa | 0 mm | - | 0 W/m² | - |
| 1787989063 | 24.44° C | 99% | 1021.3 hPa | 0 mm | - | 0 W/m² | - |
| 1787988762 | 24.44° C | 99% | 1021 hPa | 0 mm | - | 0 W/m² | - |
| 1787988460 | 24.44° C | 99% | 1021.1 hPa | 0 mm | - | 0 W/m² | - |
| 1787988158 | 24.44° C | 98% | 1021 hPa | 0.51 mm | - | 0 W/m² | - |
| 1787987855 | 24.44° C | 98% | 1021.3 hPa | 0.51 mm | - | 0 W/m² | - |
| 1787987549 | 24.44° C | 98% | 1020.9 hPa | 0 mm | - | 0 W/m² | - |
| 1787987244 | 24.44° C | 98% | 1020.9 hPa | 0 mm | - | 0 W/m² | - |
| 1787986941 | 24.44° C | 98% | 1020.7 hPa | 0 mm | - | 0 W/m² | - |
| 1787986639 | 24.44° C | 98% | 1020.6 hPa | 0 mm | - | 0 W/m² | - |
* Rain latest hour (hover to see other rain measurements)
** Current wind speed in m/s (hover to see current wind gust speed)